Wind_Speed
11 11 12 13 13 12 13 13 14 14 14 14 14 14 14 15 16 16 16 16 16 16 15 15 15 14 14 14 15 15 15 16 15 16 16 15 16 16 16 16 15 15 15
12 12 12 12 12 12 13 14 14 14 14 14 14 14 15 15 15 15 15 16 15 15 15 15 15 15 15 15 15 16 15 16 16 17 17 16 16 16 16 16 15 15 14
12 13 12 12 12 13 13 14 14 15 14 15 15 15 15 15 15 15 16 16 16 16 16 16 16 17 16 16 17 16 16 16 16 17 17 18 17 17 16 15 15 14 14
13 13 12 12 12 13 13 14 14 15 14 15 15 15 15 16 15 15 16 16 16 16 16 16 17 17 17 17 17 17 17 17 17 17 17 17 17 17 16 16 16 15 15
13 13 13 13 13 13 13 13 14 15 15 15 16 16 16 16 16 16 16 16 16 17 17 17 17 18 18 18 17 17 17 17 17 17 17 17 17 17 17 17 17 17 17
13 13 14 14 14 14 14 14 14 15 15 16 16 16 16 16 16 16 17 17 18 18 18 18 18 18 18 18 18 17 16 16 16 17 17 17 17 17 17 17 18 18 18
14 15 15 15 15 15 15 15 15 15 16 16 16 16 16 16 16 17 17 17 18 19 19 19 18 19 19 19 19 19 18 18 17 17 17 17 17 17 18 18 18 18 18
15 16 16 16 15 15 16 16 16 16 16 16 15 15 16 16 16 16 16 16 17 18 18 19 19 19 19 19 19 19 19 19 19 18 18 18 18 18 18 19 18 18 18
15 15 16 16 15 15 16 17 17 17 16 16 16 16 16 17 17 17 17 17 16 17 18 19 19 19 19 20 20 19 19 19 19 18 18 18 18 18 19 19 18 19 19
16 15 15 16 16 16 16 16 16 17 17 17 17 17 16 17 17 17 17 18 17 17 18 18 19 19 19 20 20 20 20 19 18 18 17 17 17 17 18 18 18 19 19
15 15 16 16 16 16 16 16 16 17 17 17 17 17 17 17 18 17 17 18 18 18 19 19 19 19 19 19 19 19 19 18 18 18 18 17 18 17 18 19 19 19 19
15 16 16 16 17 16 16 17 17 18 17 17 17 18 17 18 18 18 18 18 18 19 19 19 19 19 19 19 18 18 18 19 19 19 19 19 18 18 18 18 19 19 19
15 15 16 16 16 17 17 18 18 18 18 18 18 18 18 18 19 19 19 19 19 20 20 20 20 20 20 20 19 19 20 20 20 20 20 20 19 19 18 18 18 18 18
15 15 16 16 16 17 18 18 19 19 19 19 19 19 19 19 19 20 21 20 20 20 20 20 20 20 21 21 21 21 21 21 21 21 21 21 21 20 19 19 19 19 20
16 16 17 16 16 17 17 18 18 19 19 19 19 20 20 21 21 21 22 22 22 21 21 21 21 21 22 22 22 22 22 22 22 21 22 22 21 21 21 21 21 21 21
18 18 18 17 17 17 18 17 18 19 20 19 19 20 21 21 22 23 23 23 23 23 23 23 22 22 22 22 22 22 22 22 22 22 22 23 22 23 23 22 22 22 22
18 19 18 18 18 18 18 17 18 19 20 20 20 20 21 22 22 23 23 24 24 25 24 23 23 23 23 22 23 23 23 23 23 23 23 23 23 23 24 24 24 24 23
18 19 18 18 18 18 18 18 18 19 20 21 21 21 22 22 23 23 23 24 24 25 25 24 24 24 24 23 24 23 23 24 24 24 24 24 24 24 24 24 25 24 24
19 19 19 19 19 19 19 19 19 20 21 21 21 22 22 22 23 23 24 24 25 25 25 25 25 26 25 25 24 24 24 24 25 25 25 25 25 25 24 24 24 24 25
20 20 20 20 20 20 20 20 19 20 21 21 21 22 22 23 23 23 23 24 25 26 26 26 26 27 27 27 26 26 25 25 25 25 25 25 25 25 25 25 25 25 25
21 20 20 20 20 21 21 21 21 21 21 21 22 23 23 23 24 24 24 24 25 26 26 26 26 27 27 28 28 27 27 26 26 26 26 26 26 25 26 26 25 25 25
22 22 22 21 21 21 21 22 22 22 23 23 24 24 24 25 25 25 25 25 25 26 26 27 26 27 27 27 28 28 28 28 28 27 27 27 26 26 26 26 26 26 26
23 23 23 23 22 22 23 23 23 24 24 24 25 25 26 26 26 26 26 26 26 26 26 26 26 26 26 27 28 28 29 29 28 29 28 28 28 27 27 27 27 27 27
24 24 24 24 24 24 24 24 25 25 25 26 26 27 27 27 27 28 28 28 28 28 27 27 26 26 27 28 29 30 30 29 29 29 30 29 28 28 28 28 28 28 28
26 26 26 26 26 26 26 26 26 26 26 27 27 28 28 28 28 28 29 29 29 29 29 29 29 28 28 29 29 29 29 29 29 30 30 30 29 29 29 28 28 28 28
28 27 27 27 27 27 27 27 27 28 28 28 28 29 29 29 29 29 29 29 29 30 30 30 29 29 29 29 30 30 29 29 29 29 30 30 30 29 29 28 29 28 28
Wind_Direction
280 280 276 273 275 270 264 260 258 259 259 259 259 258 257 255 255 256 255 255 258 259 259 262 262 262 262 264 261 261 262 259 256 257 257 260 260 259 259 258 260 260 259
281 280 278 275 273 271 265 260 259 261 261 259 259 258 257 258 258 257 256 256 258 257 259 259 260 261 261 262 262 263 261 259 257 257 258 260 263 263 261 258 259 258 255
281 278 276 277 276 274 268 263 262 261 261 261 260 260 259 259 258 257 257 257 256 255 256 257 259 260 261 260 261 261 260 258 259 259 259 260 262 264 261 258 260 255 253
282 278 276 276 276 276 273 267 265 262 262 263 263 261 260 260 259 257 258 258 257 255 256 258 259 259 260 262 262 262 261 262 263 262 260 259 259 259 259 258 257 257 257
279 277 274 274 275 275 273 270 267 265 265 264 263 261 260 260 259 258 259 258 257 257 258 259 259 257 258 260 260 260 261 263 263 261 261 259 257 258 258 257 255 256 258
280 276 273 272 272 272 271 270 268 266 265 264 263 261 260 260 260 259 259 258 258 259 260 260 259 257 259 259 259 258 259 260 260 260 261 260 257 257 258 259 258 256 257
280 277 273 271 269 268 268 267 267 266 265 265 263 261 260 259 259 259 260 259 259 259 260 260 259 258 259 260 260 258 258 257 260 260 260 261 260 260 259 259 258 257 257
279 277 273 271 268 269 267 264 264 265 265 265 263 261 260 260 259 259 258 259 260 259 259 260 260 260 260 260 260 259 258 257 259 260 261 261 262 262 261 259 259 257 256
281 277 274 270 268 269 269 267 263 262 263 263 262 261 261 259 259 258 259 260 260 260 260 260 260 261 261 261 260 259 259 258 259 261 261 262 263 264 263 261 259 258 256
282 278 274 270 269 269 269 269 265 263 264 263 262 262 262 259 257 257 259 261 261 261 263 263 263 262 261 260 259 259 259 258 258 258 260 262 263 264 262 259 258 259 257
284 279 274 272 271 269 268 266 264 265 264 263 262 263 263 260 257 256 258 261 262 262 263 264 263 261 260 259 259 258 258 257 256 257 258 260 262 263 260 258 258 258 257
284 280 275 272 271 270 269 267 265 265 264 262 261 262 263 261 259 258 259 260 261 263 263 263 263 260 260 259 257 256 257 256 255 256 257 259 261 262 260 258 256 256 255
287 283 278 276 275 273 272 270 267 265 263 262 261 261 262 263 261 261 262 261 261 262 263 263 262 260 258 257 258 258 258 257 257 258 258 258 259 260 259 258 256 255 254
289 287 283 279 278 275 274 272 268 265 263 261 261 261 263 264 264 263 262 262 263 263 263 262 260 258 258 258 258 259 258 257 258 258 257 258 257 258 258 256 255 254 253
291 287 284 282 279 277 276 274 270 266 263 262 262 263 264 265 266 266 264 263 264 264 263 261 261 260 262 261 259 258 257 257 257 257 258 259 259 258 258 257 257 256 255
289 287 285 284 284 281 280 276 271 267 266 265 265 264 265 266 267 266 265 265 265 263 263 262 261 260 261 260 258 258 257 257 258 259 258 259 260 259 257 257 257 256 256
287 285 284 284 284 283 281 277 273 270 268 267 267 267 267 267 268 266 265 265 265 264 263 261 262 261 261 261 259 259 259 259 260 260 260 261 261 260 257 257 257 255 255
286 284 282 281 281 282 280 278 275 272 269 269 269 269 269 270 270 269 268 266 266 265 265 262 262 260 260 261 259 259 260 261 261 260 261 261 261 261 259 258 257 256 257
286 283 280 280 280 280 278 276 275 273 272 271 270 271 271 270 271 270 270 268 266 266 265 262 262 260 259 259 259 260 260 260 260 259 260 261 261 260 259 259 258 257 258
286 283 280 279 276 276 276 275 274 274 273 271 271 272 272 271 271 272 273 270 268 267 265 263 262 262 260 259 260 260 260 259 259 259 259 260 259 259 258 259 258 258 259
285 283 282 280 277 276 276 275 274 275 274 273 273 273 272 272 272 273 274 272 271 268 266 264 263 262 261 260 259 258 258 259 259 259 259 260 259 258 258 259 259 260 260
284 282 282 281 277 276 276 277 276 275 274 274 274 273 273 273 273 273 274 274 273 271 267 264 263 263 262 260 258 257 257 258 258 257 257 258 258 258 259 259 259 259 259
282 281 279 279 279 277 276 276 277 277 276 275 275 274 274 273 272 273 273 273 273 272 270 267 264 264 263 261 260 259 258 259 259 258 258 258 257 257 258 259 260 259 258
280 279 278 277 278 278 277 276 277 278 278 278 276 275 275 274 273 274 274 273 273 272 271 269 266 265 263 262 260 259 259 259 259 259 258 258 257 258 259 259 259 259 259
279 277 277 277 277 277 277 278 279 279 279 279 277 275 275 274 274 275 275 274 273 272 270 269 267 267 265 262 261 259 257 256 257 258 258 258 258 258 258 259 258 259 260
277 277 277 276 276 277 277 278 279 280 280 279 277 275 275 274 273 274 275 275 274 272 270 268 268 265 265 262 261 260 259 258 258 257 258 257 257 258 259 260 260 260 260
Height
5843 5842 5842 5842 5841 5841 5841 5841 5841 5842 5842 5842 5842 5843 5843 5844 5844 5844 5845 5845 5845 5845 5846 5846 5846 5846 5847 5847 5847 5848 5848 5848 5849 5849 5850 5851 5851 5852 5852 5853 5853 5854 5854
5840 5839 5839 5839 5838 5838 5837 5838 5838 5838 5839 5839 5839 5839 5840 5840 5840 5841 5841 5841 5841 5842 5842 5842 5843 5843 5844 5844 5844 5844 5844 5845 5845 5846 5847 5847 5848 5848 5849 5849 5850 5850 5850
5836 5836 5836 5835 5835 5834 5834 5834 5834 5835 5835 5835 5836 5836 5836 5836 5836 5837 5837 5837 5838 5838 5838 5839 5839 5839 5840 5840 5840 5841 5841 5841 5842 5842 5843 5843 5844 5845 5845 5846 5846 5847 5847
5832 5832 5832 5832 5832 5831 5831 5831 5831 5831 5831 5832 5832 5832 5832 5832 5833 5833 5833 5833 5834 5834 5835 5835 5835 5836 5836 5836 5837 5837 5837 5837 5838 5838 5839 5839 5840 5840 5841 5842 5843 5843 5844
5829 5828 5828 5828 5828 5828 5827 5827 5827 5827 5828 5828 5828 5828 5828 5829 5829 5829 5829 5830 5830 5830 5830 5831 5831 5831 5832 5832 5832 5833 5833 5833 5834 5834 5835 5835 5836 5836 5837 5838 5839 5839 5840
5825 5824 5824 5824 5824 5824 5824 5823 5823 5823 5824 5824 5824 5824 5824 5825 5825 5825 5825 5825 5826 5826 5826 5826 5827 5827 5827 5827 5828 5828 5829 5829 5830 5830 5830 5831 5831 5832 5833 5833 5834 5835 5835
5821 5820 5820 5820 5820 5820 5820 5819 5819 5819 5820 5820 5820 5820 5820 5820 5821 5821 5821 5821 5821 5821 5822 5822 5822 5822 5823 5823 5823 5824 5824 5825 5825 5826 5826 5826 5827 5827 5828 5829 5829 5830 5830
5816 5815 5815 5815 5815 5815 5815 5815 5815 5815 5815 5816 5816 5816 5816 5817 5816 5817 5817 5817 5817 5817 5817 5817 5818 5818 5818 5818 5818 5819 5820 5820 5821 5821 5821 5822 5822 5822 5823 5823 5824 5824 5825
5811 5811 5810 5810 5810 5810 5810 5810 5810 5811 5811 5811 5811 5812 5812 5812 5812 5813 5812 5813 5812 5812 5812 5813 5813 5813 5813 5813 5814 5814 5815 5815 5816 5816 5816 5817 5817 5817 5817 5818 5818 5819 5819
5806 5806 5806 5806 5806 5806 5806 5805 5806 5806 5806 5806 5806 5807 5807 5807 5808 5808 5808 5808 5808 5808 5808 5808 5808 5808 5808 5808 5808 5809 5810 5810 5811 5811 5812 5812 5812 5812 5812 5812 5812 5813 5814
5801 5801 5801 5801 5801 5801 5801 5801 5801 5801 5801 5801 5802 5802 5802 5802 5803 5803 5804 5803 5803 5803 5803 5803 5803 5803 5803 5803 5803 5804 5805 5805 5806 5807 5807 5808 5807 5807 5807 5807 5807 5807 5808
5797 5796 5796 5796 5796 5796 5796 5796 5796 5796 5796 5796 5797 5797 5797 5797 5798 5798 5798 5799 5799 5798 5798 5798 5798 5797 5797 5798 5798 5799 5799 5800 5801 5802 5803 5803 5803 5802 5802 5802 5802 5802 5803
5793 5792 5792 5791 5791 5791 5791 5791 5791 5791 5791 5791 5792 5792 5792 5792 5792 5793 5793 5793 5793 5793 5793 5792 5792 5792 5792 5793 5793 5794 5794 5795 5796 5797 5797 5798 5798 5798 5798 5797 5797 5798 5799
5790 5789 5788 5787 5787 5786 5786 5785 5785 5785 5786 5786 5786 5786 5786 5787 5787 5787 5787 5787 5787 5787 5787 5787 5787 5787 5787 5787 5788 5788 5789 5789 5790 5791 5792 5793 5793 5793 5793 5793 5793 5794 5795
5786 5785 5784 5783 5782 5782 5781 5780 5780 5780 5780 5780 5780 5781 5781 5781 5781 5781 5781 5782 5782 5781 5781 5781 5781 5781 5781 5782 5782 5783 5783 5784 5784 5785 5786 5787 5788 5788 5788 5789 5789 5790 5790
5781 5780 5779 5778 5777 5777 5776 5775 5774 5774 5774 5775 5775 5775 5775 5775 5775 5775 5775 5775 5775 5775 5775 5775 5775 5775 5775 5775 5776 5777 5777 5778 5779 5779 5780 5781 5781 5782 5783 5783 5784 5785 5785
5776 5775 5774 5773 5772 5771 5771 5770 5769 5769 5769 5769 5769 5769 5769 5768 5768 5768 5768 5768 5768 5768 5768 5768 5768 5769 5769 5769 5770 5770 5771 5772 5772 5773 5774 5774 5775 5776 5776 5777 5777 5778 5779
5771 5770 5769 5768 5767 5766 5765 5764 5763 5763 5763 5763 5762 5762 5762 5762 5762 5761 5761 5761 5760 5761 5761 5761 5761 5762 5762 5763 5763 5764 5764 5765 5766 5766 5767 5767 5768 5769 5769 5770 5771 5772 5772
5765 5764 5763 5762 5762 5761 5760 5759 5758 5757 5757 5756 5756 5756 5756 5755 5755 5754 5754 5753 5753 5753 5754 5754 5754 5755 5755 5756 5756 5757 5758 5758 5759 5759 5760 5760 5761 5761 5762 5763 5763 5764 5765
5760 5759 5757 5756 5755 5754 5754 5753 5752 5751 5751 5750 5750 5750 5749 5749 5748 5747 5747 5746 5746 5746 5746 5746 5747 5747 5748 5748 5749 5750 5750 5751 5751 5752 5752 5753 5753 5754 5755 5755 5756 5757 5757
5754 5752 5751 5750 5749 5748 5747 5746 5746 5745 5745 5744 5743 5743 5743 5742 5742 5741 5740 5739 5739 5738 5738 5738 5739 5739 5740 5740 5741 5742 5742 5743 5743 5744 5745 5745 5746 5747 5747 5748 5749 5749 5750
5747 5746 5745 5743 5743 5742 5741 5740 5739 5739 5738 5737 5736 5736 5735 5735 5734 5733 5733 5732 5731 5731 5730 5730 5730 5731 5731 5732 5732 5733 5734 5735 5735 5737 5737 5737 5738 5739 5739 5740 5740 5741 5741
5741 5739 5738 5737 5736 5735 5734 5733 5732 5731 5731 5730 5729 5728 5728 5727 5726 5726 5725 5724 5723 5722 5722 5722 5722 5722 5723 5723 5724 5725 5725 5726 5727 5727 5729 5729 5729 5730 5731 5731 5732 5732 5733
5733 5732 5731 5730 5729 5728 5726 5726 5725 5724 5723 5722 5721 5720 5719 5719 5718 5717 5716 5715 5715 5714 5714 5713 5713 5713 5713 5714 5715 5715 5716 5717 5718 5718 5720 5721 5721 5722 5722 5722 5723 5724 5724
5726 5724 5723 5722 5721 5720 5719 5718 5717 5716 5715 5714 5712 5711 5710 5710 5709 5708 5707 5706 5706 5705 5704 5704 5704 5704 5704 5704 5705 5705 5706 5707 5708 5709 5710 5711 5712 5713 5713 5714 5714 5715 5715
5717 5716 5715 5714 5713 5712 5711 5710 5708 5707 5706 5705 5704 5702 5701 5700 5699 5698 5698 5697 5696 5695 5695 5694 5694 5694 5694 5694 5694 5695 5696 5698 5699 5700 5700 5702 5703 5703 5704 5705 5705 5706 5707